"Pseudo-MPEC" for ZTs0036

Created 2023 Jan 28 14:22:35 UT using Find_Orb

Click here for an explanation of pseudo-MPECs

 
 Astrometry: 
     ZTs0036* C2023 01 23.39472 08 02 35.80 +33 35 02.9    ~1NEq 16.76RUNEOCPI41
     ZTs0036  C2023 01 23.39506 08 02 41.00 +33 34 35.4    ~1NEq 16.76RUNEOCPI41
     ZTs0036  C2023 01 23.39519 08 02 42.92 +33 34 24.8    ~1NEq 16.79RUNEOCPI41
     ZTs0036  C2023 01 23.39554 08 02 48.08 +33 33 57.8    ~1NEq 16.79RUNEOCPI41

Station data:
(I41) Palomar Mountain--ZTF  (N33.357338 W116.859780)  US/California.
   Observers B. T. Bolin, Z. T. F. Collaboration. Measurers B. T. Bolin,
   Z.-Y. Lin, F. J. Masci. 1.2-m f/2.4 Schmidt.

Orbital elements:  ZTs0036
   Perigee 2023 Jan 22.86325 +/- 35.5 TT = 20:43:04 (JD 2459967.36325)
Epoch 2023 Jan 23.0 TT = JDT 2459967.5                           AutoNEOCP
M  41.36464317 +/- 26               (J2000 equator)
n 302.48097627 +/- 0.455            Peri.  293.03069 +/- 56
a 47439.2843 +/- 4.53e+7            Node    10.05445 +/- 80
e   0.7285917 +/- 0.239             Incl.   35.91840 +/- 3.3
P1713.79m/1.190d           H 32.88  G  0.15   U 12.2  SR
q 12875.4108 +/- 2.39e+7    Q 82003.1578 +/- 5.72e+9
From 4 observations 2023 Jan. 23 (70.8 sec); mean residual 0".49
Residuals in arcseconds: 
230123 I41  .62-  .31+    230123 I41  .43+  .47-    
230123 I41  .76+  .20-    230123 I41  .57-  .36+    

Ephemerides (geocentric):
Date (UTC) HH   RA             Dec           delta  r     elong  mag " sig PA
---- --------  ------------   ------------  ------ ------ -----  --- --------
2023 01 28 14  10 40 25.204   +19 46 07.21   58857 .98517 152.0 17.1  68d  22
2023 01 28 15  11 02 54.246   +16 29 24.47   52596 .98512 146.4 17.0  69d  21
2023 01 28 16  11 30 59.852   +12 01 09.33   45255 .98506 138.9 16.9  70d  21
2023 01 28 17  12 09 43.458   +05 20 00.57   36634 .98499 127.8 16.8  71d  21
2023 01 28 18  13 14 15.162   -06 16 45.70   26542 .98490 108.7 16.6  71d  21
2023 01 28 19  16 06 47.395   -29 41 14.87   15845 .98480  63.2 17.6  64d  23
2023 01 28 20  23 35 33.108   -11 14 27.72   14941 .98478  42.2 19?? 128d 170
2023 01 28 21  02 30 08.629   +18 38 25.06   25412 .98487  92.8 17.1 108d 169
2023 01 28 22  03 52 53.269   +28 27 58.23   35655 .98496 113.5 17.1  99d 169
2023 01 28 23  04 46 21.683   +32 34 00.28   44423 .98504 125.2 17.3  90d 171
2023 01 29 00  05 25 37.646   +34 31 07.68   51888 .98511 133.2 17.4  85d 173
2023 01 29 01  05 56 37.940   +35 27 46.68   58254 .98517 139.3 17.4  81d 176
2023 01 29 02  06 22 19.616   +35 51 35.77   63678 .98523 144.1 17.5  81d 176
2023 01 29 03  06 44 23.053   +35 55 35.53   68272 .98527 148.1 17.5  80d 177
2023 01 29 04  07 03 50.539   +35 46 32.53   72118 .98532 151.6 17.6  75d   2
2023 01 29 05  07 21 23.438   +35 28 12.94   75277 .98535 154.7 17.6  74d   4
2023 01 29 06  07 37 30.784   +35 02 47.05   77793 .98538 157.4 17.6  73d   5
2023 01 29 07  07 52 33.973   +34 31 29.74   79701 .98541 159.8 17.5  72d   6
2023 01 29 08  08 06 49.523   +33 55 01.07   81022 .98543 162.0 17.5  71d   8
2023 01 29 09  08 20 30.812   +33 13 37.12   81772 .98544 163.8 17.5  71d   9
2023 01 29 10  08 33 49.237   +32 27 15.40   81960 .98545 165.3 17.4  69d  13
2023 01 29 11  08 46 55.080   +31 35 37.03   81588 .98546 166.4 17.4  64d  22
2023 01 29 12  08 59 58.211   +30 38 06.40   80652 .98546 167.0 17.3  63d  24
2023 01 29 13  09 13 08.773   +29 33 48.53   79140 .98545 166.9 17.3  63d  24
2023 01 29 14  09 26 37.938   +28 21 23.49   77036 .98544 166.1 17.2  64d  23
2023 01 29 15  09 40 38.915   +26 58 56.57   74313 .98542 164.5 17.2  65d  23
2023 01 29 16  09 55 28.439   +25 23 41.23   70934 .98540 162.3 17.2  65d  23
2023 01 29 17  10 11 29.232   +23 31 28.79   66851 .98537 159.4 17.2  66d  23
2023 01 29 18  10 29 14.462   +21 15 51.67   61995 .98534 155.7 17.1  67d  22
2023 01 29 19  10 49 36.665   +18 26 08.78   56276 .98529 150.9 17.0  68d  22
2023 01 29 20  11 14 07.922   +14 43 09.82   49570 .98524 144.6 16.9  69d  21
2023 01 29 21  11 45 53.674   +09 28 22.61   41703 .98518 135.9 16.8  70d  21
2023 01 29 22  12 32 37.183   +01 10 43.99   32459 .98510 122.3 16.7  71d  22
2023 01 29 23  14 02 53.644   -14 31 30.49   21798 .98500  95.8 16.7  69d  22
2023 01 30 00  19 25 59.647   -35 21 38.06   13080 .98491  25.2 22??  61d  23
2023 01 30 01  01 12 44.201   +06 04 03.15   19165 .98495  69.5 17.6 120d 169
2023 01 30 02  03 11 24.627   +24 05 54.35   30016 .98504 102.3 17.1 103d 169
2023 01 30 03  04 18 27.733   +30 39 32.64   39620 .98513 118.1 17.2  96d 169
2023 01 30 04  05 04 44.459   +33 36 00.99   47798 .98521 127.9 17.3  87d 173
2023 01 30 05  05 39 56.974   +35 01 38.33   54766 .98527 134.9 17.4  85d 173
2023 01 30 06  06 08 23.653   +35 41 34.49   60709 .98533 140.3 17.5  81d 176
2023 01 30 07  06 32 21.327   +35 55 27.75   65763 .98539 144.8 17.6  81d 176
2023 01 30 08  06 53 10.956   +35 53 00.27   70025 .98543 148.6 17.6  79d 178
2023 01 30 09  07 11 44.376   +35 39 25.11   73569 .98547 152.0 17.6  75d   2
2023 01 30 10  07 28 36.878   +35 17 39.71   76446 .98550 154.9 17.6  74d   4
2023 01 30 11  07 44 13.774   +34 49 26.71   78696 .98553 157.6 17.6  73d   5
2023 01 30 12  07 58 54.093   +34 15 43.96   80348 .98556 159.9 17.5  71d   8
2023 01 30 13  08 12 52.828   +33 37 00.08   81422 .98557 162.1 17.5  70d  10